• In Spain
  • List of Countries
  • For 7 days
  • Water Temperature
  • Satellite Maps
  • Weather Map
  • Weather Widgets
  • user-avatar
    Login

    Hourly Weather Morochi

    Today, 21 April, Saturday

    Time Temperature Precipitation Wind Pressure Humidity
    00:00 +9°C° 0 mm 3 mps 733 mmHg 80%
    01:00 +8°C° 0 mm 4 mps 733 mmHg 84%
    02:00 +9°C° 0 mm 3 mps 731 mmHg 88%
    03:00 +9°C° 0 mm 3 mps 731 mmHg 90%
    04:00 +8°C° 0 mm 4 mps 730 mmHg 92%
    05:00 +10°C° 0 mm 4 mps 729 mmHg 93%
    06:00 +10°C° 0 mm 4 mps 728 mmHg 88%
    07:00 +10°C° 0 mm 5 mps 727 mmHg 82%
    08:00 +11°C° 0 mm 6 mps 726 mmHg 74%
    09:00 +14°C° 0 mm 6 mps 725 mmHg 69%
    10:00 +15°C° 0 mm 7 mps 723 mmHg 64%
    11:00 +17°C° 0 mm 7 mps 722 mmHg 59%
    12:00 +16°C° 0.6 mm 8 mps 722 mmHg 59%
    13:00 +16°C° 0.6 mm 8 mps 721 mmHg 59%
    14:00 +15°C° 0.6 mm 9 mps 721 mmHg 58%
    15:00 +12°C° 0.2 mm 9 mps 721 mmHg 59%
    16:00 +11°C° 0.2 mm 9 mps 721 mmHg 61%
    17:00 +8°C° 0.2 mm 9 mps 722 mmHg 62%
    18:00 +7°C° 0.1 mm 9 mps 722 mmHg 64%
    19:00 +6°C° 0.1 mm 8 mps 723 mmHg 66%
    20:00 +5°C° 0.1 mm 8 mps 724 mmHg 68%
    21:00 +4°C° 0 mm 8 mps 724 mmHg 69%
    22:00 +4°C° 0 mm 7 mps 724 mmHg 70%
    23:00 +4°C° 0 mm 7 mps 725 mmHg 71%

    Tomorrow, 22 April, Sunday

    Time Temperature Precipitation Wind Pressure Humidity
    00:00 +3°C° 0 mm 7 mps 725 mmHg 73%
    01:00 +3°C° 0 mm 6 mps 726 mmHg 75%
    02:00 +2°C° 0 mm 6 mps 727 mmHg 76%
    03:00 +2°C° 0 mm 5 mps 727 mmHg 77%
    04:00 +2°C° 0 mm 5 mps 727 mmHg 78%
    05:00 +2°C° 0 mm 5 mps 728 mmHg 79%
    06:00 +3°C° 0.1 mm 4 mps 728 mmHg 77%
    07:00 +3°C° 0.1 mm 4 mps 728 mmHg 76%
    08:00 +3°C° 0.1 mm 4 mps 729 mmHg 75%
    09:00 +3°C° 0 mm 4 mps 729 mmHg 72%
    10:00 +4°C° 0 mm 4 mps 729 mmHg 69%
    11:00 +4°C° 0 mm 4 mps 730 mmHg 66%
    12:00 +4°C° 0 mm 4 mps 730 mmHg 65%
    13:00 +4°C° 0 mm 4 mps 731 mmHg 63%
    14:00 +4°C° 0 mm 4 mps 731 mmHg 61%
    15:00 +4°C° 0 mm 4 mps 731 mmHg 61%
    16:00 +4°C° 0 mm 4 mps 732 mmHg 61%
    17:00 +4°C° 0 mm 4 mps 732 mmHg 61%
    18:00 +3°C° 0 mm 4 mps 733 mmHg 63%
    19:00 +2°C° 0 mm 3 mps 733 mmHg 66%
    20:00 +1°C° 0 mm 3 mps 734 mmHg 69%
    21:00 0°C° 0 mm 3 mps 734 mmHg 72%
    22:00 -1°C° 0 mm 2 mps 735 mmHg 74%
    23:00 -2°C° 0 mm 2 mps 735 mmHg 77%

    Day after tomorrow, 23 April, Monday

    Time Temperature Precipitation Wind Pressure Humidity
    00:00 -2°C° 0 mm 2 mps 736 mmHg 78%
    01:00 -3°C° 0 mm 2 mps 736 mmHg 79%
    02:00 -3°C° 0 mm 2 mps 737 mmHg 80%
    03:00 -3°C° 0 mm 2 mps 737 mmHg 80%
    04:00 -3°C° 0 mm 2 mps 737 mmHg 79%
    05:00 -3°C° 0 mm 2 mps 738 mmHg 79%
    06:00 -2°C° 0 mm 2 mps 738 mmHg 69%
    07:00 +1°C° 0 mm 2 mps 738 mmHg 60%
    08:00 +1°C° 0 mm 3 mps 739 mmHg 50%
    09:00 +2°C° 0 mm 3 mps 739 mmHg 46%
    10:00 +3°C° 0 mm 3 mps 739 mmHg 41%
    11:00 +5°C° 0 mm 3 mps 739 mmHg 37%
    12:00 +6°C° 0 mm 2 mps 739 mmHg 36%
    13:00 +7°C° 0 mm 2 mps 738 mmHg 35%
    14:00 +7°C° 0 mm 2 mps 738 mmHg 34%
    15:00 +7°C° 0 mm 2 mps 738 mmHg 36%
    16:00 +7°C° 0 mm 2 mps 738 mmHg 38%
    17:00 +7°C° 0 mm 2 mps 738 mmHg 39%
    18:00 +5°C° 0 mm 2 mps 738 mmHg 47%
    19:00 +4°C° 0 mm 1 mps 738 mmHg 54%
    20:00 +2°C° 0 mm 1 mps 738 mmHg 61%
    21:00 +1°C° 0 mm 1 mps 738 mmHg 63%
    22:00 0°C° 0 mm 0 mps 738 mmHg 65%
    23:00 -1°C° 0 mm 0 mps 738 mmHg 66%

    24 April, Tuesday

    Time Temperature Precipitation Wind Pressure Humidity
    00:00 0°C° 0 mm 1 mps 738 mmHg 67%
    01:00 0°C° 0 mm 1 mps 738 mmHg 67%
    02:00 0°C° 0 mm 1 mps 738 mmHg 68%
    03:00 0°C° 0 mm 1 mps 737 mmHg 67%
    04:00 0°C° 0 mm 1 mps 737 mmHg 67%
    05:00 -2°C° 0 mm 2 mps 737 mmHg 67%
    06:00 +1°C° 0 mm 2 mps 737 mmHg 60%
    07:00 +3°C° 0 mm 2 mps 737 mmHg 54%
    08:00 +4°C° 0 mm 3 mps 737 mmHg 47%
    09:00 +7°C° 0 mm 3 mps 736 mmHg 45%
    10:00 +8°C° 0 mm 3 mps 736 mmHg 43%
    11:00 +9°C° 0 mm 3 mps 735 mmHg 41%
    12:00 +10°C° 0 mm 4 mps 735 mmHg 42%
    13:00 +10°C° 0 mm 4 mps 735 mmHg 44%
    14:00 +11°C° 0 mm 4 mps 734 mmHg 45%
    15:00 +10°C° 0.1 mm 4 mps 734 mmHg 51%
    16:00 +10°C° 0.1 mm 4 mps 734 mmHg 57%
    17:00 +9°C° 0.1 mm 3 mps 733 mmHg 63%
    18:00 +8°C° 0.2 mm 3 mps 733 mmHg 71%
    19:00 +7°C° 0.2 mm 3 mps 733 mmHg 79%
    20:00 +5°C° 0.2 mm 3 mps 733 mmHg 87%
    21:00 +5°C° 0.1 mm 3 mps 732 mmHg 89%
    22:00 +5°C° 0.1 mm 3 mps 732 mmHg 91%
    23:00 +5°C° 0.1 mm 3 mps 732 mmHg 93%

    25 April, Wednesday

    Time Temperature Precipitation Wind Pressure Humidity
    00:00 +5°C° 0.1 mm 3 mps 732 mmHg 94%
    01:00 +5°C° 0.1 mm 3 mps 731 mmHg 94%
    02:00 +5°C° 0.1 mm 3 mps 731 mmHg 95%
    03:00 +5°C° 0 mm 3 mps 731 mmHg 95%
    04:00 +5°C° 0 mm 3 mps 730 mmHg 95%
    05:00 +5°C° 0 mm 3 mps 730 mmHg 94%
    06:00 +5°C° 0.5 mm 3 mps 729 mmHg 92%
    07:00 +5°C° 0.5 mm 4 mps 729 mmHg 90%
    08:00 +6°C° 0.5 mm 4 mps 728 mmHg 87%
    09:00 +6°C° 0.6 mm 4 mps 728 mmHg 87%
    10:00 +6°C° 0.6 mm 4 mps 728 mmHg 86%
    11:00 +6°C° 0.6 mm 4 mps 728 mmHg 86%
    12:00 +7°C° 0.3 mm 5 mps 728 mmHg 79%
    13:00 +8°C° 0.3 mm 5 mps 728 mmHg 71%
    14:00 +9°C° 0.3 mm 5 mps 728 mmHg 64%
    15:00 +9°C° 0.3 mm 5 mps 728 mmHg 66%
    16:00 +8°C° 0.3 mm 5 mps 728 mmHg 68%
    17:00 +8°C° 0.3 mm 5 mps 728 mmHg 70%
    18:00 +7°C° 0.2 mm 4 mps 729 mmHg 76%
    19:00 +6°C° 0.2 mm 4 mps 729 mmHg 81%
    20:00 +5°C° 0.2 mm 4 mps 730 mmHg 86%
    21:00 +5°C° 0.3 mm 4 mps 730 mmHg 87%
    22:00 +5°C° 0.3 mm 4 mps 730 mmHg 88%
    23:00 +5°C° 0.3 mm 4 mps 730 mmHg 89%

    26 April, Thursday

    Time Temperature Precipitation Wind Pressure Humidity
    00:00 +4°C° 0.1 mm 3 mps 730 mmHg 90%
    01:00 +4°C° 0.1 mm 3 mps 731 mmHg 90%
    02:00 +4°C° 0.1 mm 3 mps 731 mmHg 91%
    03:00 +3°C° 0 mm 3 mps 731 mmHg 92%
    04:00 +3°C° 0 mm 3 mps 731 mmHg 93%
    05:00 +2°C° 0 mm 3 mps 731 mmHg 94%
    06:00 +3°C° 0 mm 3 mps 731 mmHg 90%
    07:00 +4°C° 0 mm 3 mps 732 mmHg 86%
    08:00 +5°C° 0 mm 3 mps 732 mmHg 83%
    09:00 +7°C° 0 mm 3 mps 732 mmHg 79%
    10:00 +8°C° 0 mm 3 mps 732 mmHg 76%
    11:00 +7°C° 0 mm 4 mps 732 mmHg 73%
    12:00 +8°C° 0.1 mm 3 mps 732 mmHg 74%
    13:00 +8°C° 0.1 mm 3 mps 731 mmHg 75%
    14:00 +8°C° 0.1 mm 3 mps 731 mmHg 76%
    15:00 +8°C° 0 mm 2 mps 731 mmHg 75%
    16:00 +8°C° 0 mm 2 mps 731 mmHg 75%
    17:00 +8°C° 0 mm 2 mps 730 mmHg 74%
    18:00 +7°C° 0 mm 2 mps 731 mmHg 79%
    19:00 +6°C° 0 mm 2 mps 731 mmHg 84%
    20:00 +6°C° 0 mm 2 mps 731 mmHg 89%
    21:00 +5°C° 0 mm 2 mps 731 mmHg 92%
    22:00 +5°C° 0 mm 2 mps 731 mmHg 94%
    23:00 +5°C° 0 mm 2 mps 731 mmHg 96%
    Show more